Location: 22
(39.7117°N, 89.5929°W)
Time: 18:45:13
(UTC-05:00)

Vanguard 3 - Pass Details

Date: 01 February 2023
Orbit: 508 x 3249 km, 33.4° (Epoch: 30 March)

Event Time Altitude Azimuth Distance (km) Brightness Sun altitude
Rises 19:43:50 0° 245° (WSW) 4,435 11.9 -28.2°
Reaches altitude 10° 19:46:19 10° 242° (WSW) 3,749 11.2 -28.7°
Maximum altitude 19:56:37 62° 164° (SSE) 2,480 9.3 -30.7°
Enters shadow 20:01:14 48° 113° (ESE) 3,112 9.6 -31.6°
Drops below altitude 10° 20:13:51 10° 90° (E) 5,973 - -34.0°
Sets 20:19:01 0° 88° (E) 7,154 - -35.0°
